SAS33A BGGH-ENGM

Flight info

Callsign SAS33A
Flight time N/A
Altitude 39000
Route EVULO1A EVULO DCT ASTAN DCT 66N030W 66N020W 65N010W DCT ISVIG/N0446F390 DCT ADOPI
Aircraft A333/H-SDE3GHIJ2J3J5M1RVWXY/LB2D1

Departure

Time 2026-04-25 18:47
Airport Nuuk International Airport (BGGH)

Arrival

Time N/A
Airport Oslo-Gardermoen International Airport (ENGM)
Time Latitude Longitude Altitude Speed Heading
2026-04-25 18:18 64.18834 -51.67577 287 ft 0 kts 108°
2026-04-25 18:40 64.18835 -51.67583 285 ft 3 kts 108°
2026-04-25 18:40 64.18845 -51.67638 287 ft 4 kts 121°
2026-04-25 18:41 64.18861 -51.67686 292 ft 4 kts 143°
2026-04-25 18:41 64.18883 -51.67708 292 ft 4 kts 189°
2026-04-25 18:41 64.18889 -51.67705 289 ft 0 kts 198°
2026-04-25 18:43 64.18875 -51.67715 293 ft 9 kts 198°
2026-04-25 18:43 64.18745 -51.67812 285 ft 24 kts 197°
2026-04-25 18:43 64.18630 -51.67915 285 ft 8 kts 239°
2026-04-25 18:44 64.18630 -51.67995 285 ft 8 kts 283°
2026-04-25 18:44 64.18649 -51.68232 285 ft 14 kts 253°
2026-04-25 18:44 64.18569 -51.68317 287 ft 15 kts 196°
2026-04-25 18:44 64.18430 -51.68416 287 ft 22 kts 198°
2026-04-25 18:45 64.18328 -51.68496 285 ft 24 kts 199°
2026-04-25 18:45 64.18201 -51.68519 284 ft 14 kts 178°
2026-04-25 18:45 64.18150 -51.68585 283 ft 5 kts 264°
2026-04-25 18:45 64.18161 -51.68613 283 ft 1 kts 335°
2026-04-25 18:46 64.18190 -51.68597 284 ft 10 kts 15°
2026-04-25 18:46 64.18198 -51.68591 284 ft 0 kts 17°
2026-04-25 18:46 64.18251 -51.68553 283 ft 33 kts 17°
2026-04-25 18:46 64.18699 -51.68225 286 ft 102 kts 18°
2026-04-25 18:47 64.19507 -51.67597 632 ft 132 kts 18°
2026-04-25 18:47 64.20456 -51.67353 1477 ft 142 kts
2026-04-25 18:47 64.21420 -51.68409 2159 ft 179 kts 323°
2026-04-25 18:47 64.22012 -51.71379 2543 ft 234 kts 284°
2026-04-25 18:48 64.21722 -51.75264 2798 ft 269 kts 248°
2026-04-25 18:48 64.20448 -51.78487 3375 ft 280 kts 213°
2026-04-25 18:48 64.18601 -51.79776 4048 ft 283 kts 182°
2026-04-25 18:48 64.16633 -51.79078 4587 ft 290 kts 165°
2026-04-25 18:49 64.14649 -51.78119 5306 ft 293 kts 172°
2026-04-25 18:49 64.12667 -51.76969 6041 ft 293 kts 152°
2026-04-25 18:49 64.10947 -51.74520 6832 ft 292 kts 146°
2026-04-25 18:49 64.09243 -51.71924 7567 ft 294 kts 146°
2026-04-25 18:50 64.07507 -51.69362 8240 ft 300 kts 148°
2026-04-25 18:50 64.05809 -51.66492 8806 ft 307 kts 134°
2026-04-25 18:50 64.04663 -51.62449 9482 ft 305 kts 107°
2026-04-25 18:50 64.04429 -51.57722 10134 ft 298 kts 81°
2026-04-25 18:51 64.04861 -51.53116 10571 ft 307 kts 73°
2026-04-25 18:51 64.05266 -51.49882 10721 ft 319 kts 72°
2026-04-25 18:51 64.06132 -51.43210 11002 ft 343 kts 73°
2026-04-25 18:51 64.06814 -51.37867 11351 ft 356 kts 73°
2026-04-25 18:52 64.07506 -51.32369 11929 ft 361 kts 74°
2026-04-25 18:52 64.08197 -51.26809 12478 ft 366 kts 74°
2026-04-25 18:52 64.08902 -51.21165 13045 ft 372 kts 73°
2026-04-25 18:52 64.09868 -51.15661 13591 ft 375 kts 62°
2026-04-25 18:53 64.11139 -51.10541 14171 ft 377 kts 58°
2026-04-25 18:53 64.12529 -51.05303 14713 ft 381 kts 58°
2026-04-25 18:53 64.13901 -51.00162 15233 ft 385 kts 58°
2026-04-25 18:53 64.15294 -50.94881 15706 ft 390 kts 58°
2026-04-25 18:54 64.18112 -50.84094 16751 ft 398 kts 58°
2026-04-25 18:54 64.19537 -50.78630 17046 ft 400 kts 58°
2026-04-25 18:54 64.20966 -50.73151 17077 ft 401 kts 58°
2026-04-25 18:55 64.22399 -50.67651 17079 ft 402 kts 58°
2026-04-25 18:55 64.23835 -50.62126 17092 ft 403 kts 58°
2026-04-25 18:55 64.25251 -50.56562 17077 ft 403 kts 60°
2026-04-25 18:55 64.26670 -50.50978 17076 ft 403 kts 59°
2026-04-25 18:56 64.28092 -50.45414 17052 ft 403 kts 59°
2026-04-25 18:56 64.29519 -50.39842 17062 ft 404 kts 59°
2026-04-25 18:56 64.30945 -50.34276 17060 ft 404 kts 59°
2026-04-25 18:56 64.32377 -50.28680 17063 ft 405 kts 59°
2026-04-25 18:57 64.33788 -50.23156 17064 ft 404 kts 59°
2026-04-25 18:57 64.35215 -50.17562 17063 ft 404 kts 59°
2026-04-25 18:57 64.36658 -50.11892 17063 ft 404 kts 60°
2026-04-25 18:57 64.37574 -50.08149 17067 ft 405 kts 62°
2026-04-25 18:58 64.39059 -50.00218 17188 ft 408 kts 71°
2026-04-25 18:58 64.40796 -49.87561 18105 ft 418 kts 74°
2026-04-25 18:58 64.41626 -49.81069 18545 ft 422 kts 74°
2026-04-25 18:59 64.43343 -49.67973 19393 ft 427 kts 73°
2026-04-25 18:59 64.45128 -49.54789 20263 ft 432 kts 73°
2026-04-25 19:00 64.46955 -49.41427 21065 ft 437 kts 73°
2026-04-25 19:00 64.47875 -49.34680 21448 ft 440 kts 73°
2026-04-25 19:01 64.49707 -49.21148 22217 ft 445 kts 74°
2026-04-25 19:01 64.50643 -49.14184 22617 ft 448 kts 74°
2026-04-25 19:01 64.51558 -49.07342 22966 ft 450 kts 74°
2026-04-25 19:01 64.52500 -49.00362 23340 ft 454 kts 73°
2026-04-25 19:02 64.54448 -48.86292 23976 ft 460 kts 72°
2026-04-25 19:02 64.55426 -48.79179 24244 ft 463 kts 74°
2026-04-25 19:02 64.56396 -48.71995 24506 ft 467 kts 74°
2026-04-25 19:03 64.57668 -48.62383 24921 ft 470 kts 75°
2026-04-25 19:03 64.59255 -48.50138 25391 ft 474 kts 75°
2026-04-25 19:03 64.60167 -48.42832 25684 ft 476 kts 77°
2026-04-25 19:04 64.61965 -48.27867 26222 ft 481 kts 77°
2026-04-25 19:04 64.62886 -48.20360 26502 ft 483 kts 77°
2026-04-25 19:05 64.64804 -48.05192 26984 ft 491 kts 77°
2026-04-25 19:05 64.66744 -47.89833 27544 ft 494 kts 77°
2026-04-25 19:05 64.67708 -47.82097 27815 ft 497 kts 77°
2026-04-25 19:06 64.68667 -47.74335 28075 ft 499 kts 78°
2026-04-25 19:06 64.70569 -47.58786 28596 ft 503 kts 78°
2026-04-25 19:06 64.71530 -47.50867 28844 ft 505 kts 78°
2026-04-25 19:07 64.73440 -47.34982 29014 ft 508 kts 78°
2026-04-25 19:07 64.74393 -47.27019 28987 ft 507 kts 78°
2026-04-25 19:08 64.77223 -47.03100 29003 ft 512 kts 78°
2026-04-25 19:09 64.80091 -46.78484 29001 ft 534 kts 78°
2026-04-25 19:09 64.80756 -46.72780 29002 ft 538 kts 78°
2026-04-25 19:10 64.84017 -46.44513 29000 ft 539 kts 78°
2026-04-25 19:10 64.85933 -46.27476 29003 ft 539 kts 79°
2026-04-25 19:11 64.87826 -46.10388 29020 ft 539 kts 79°
2026-04-25 19:11 64.89699 -45.93264 29014 ft 539 kts 79°
2026-04-25 19:12 64.91541 -45.76255 29012 ft 539 kts 79°
2026-04-25 19:12 64.93373 -45.59138 29005 ft 535 kts 79°
2026-04-25 19:13 64.95171 -45.42101 29007 ft 533 kts 80°
2026-04-25 19:13 64.96941 -45.25073 29005 ft 534 kts 80°
2026-04-25 19:14 64.98700 -45.08011 29003 ft 534 kts 80°
2026-04-25 19:14 65.00430 -44.91021 29004 ft 534 kts 80°
2026-04-25 19:15 65.01868 -44.76707 28997 ft 534 kts 81°
2026-04-25 19:15 65.03844 -44.56796 29022 ft 534 kts 81°
2026-04-25 19:16 65.05525 -44.39639 28997 ft 535 kts 81°
2026-04-25 19:16 65.07189 -44.22428 28994 ft 535 kts 81°
2026-04-25 19:17 65.08834 -44.05216 28972 ft 534 kts 81°
2026-04-25 19:17 65.10451 -43.88078 28983 ft 531 kts 81°
2026-04-25 19:18 65.12031 -43.71058 28984 ft 531 kts 82°
2026-04-25 19:18 65.13601 -43.53915 28985 ft 533 kts 82°
2026-04-25 19:19 65.15169 -43.36605 28981 ft 536 kts 82°
2026-04-25 19:19 65.16723 -43.19225 28978 ft 536 kts 82°
2026-04-25 19:20 65.18252 -43.01853 28978 ft 536 kts 82°
2026-04-25 19:20 65.19680 -42.84443 28965 ft 535 kts 84°
2026-04-25 19:21 65.21113 -42.66973 28981 ft 537 kts 83°
2026-04-25 19:21 65.23362 -42.40969 28966 ft 536 kts 83°
2026-04-25 19:22 65.24815 -42.23546 28966 ft 536 kts 83°
2026-04-25 19:23 65.26959 -41.97322 28961 ft 536 kts 83°
2026-04-25 19:23 65.29089 -41.71080 28959 ft 535 kts 84°
2026-04-25 19:24 65.30465 -41.53590 28966 ft 534 kts 84°
2026-04-25 19:25 65.33126 -41.18719 28944 ft 534 kts 84°
2026-04-25 19:25 65.34413 -41.01205 28949 ft 534 kts 84°
2026-04-25 19:26 65.35671 -40.83682 28970 ft 530 kts 85°
2026-04-25 19:26 65.36608 -40.66282 29224 ft 526 kts 89°
2026-04-25 19:27 65.36983 -40.54748 29074 ft 518 kts 91°
2026-04-25 19:27 65.37158 -40.43445 28954 ft 497 kts 95°